Weather History for Ogden Hill AFB, UT

Change the Weather History Date:

Saturday, October 6, 2012

  Actual Average Record
Temperature  
Mean Temperature 46 °F -  
Max Temperature 58 °F 65 °F 75 °F (1996)
Min Temperature 35 °F 44 °F 30 °F (1996)
Degree Days  
Heating Degree Days 18    
Moisture  
Dew Point 13 °F    
Average Humidity 26    
Maximum Humidity 38    
Minimum Humidity 15    
Precipitation  
Precipitation 0.00 in - - ()
Sea Level Pressure  
Sea Level Pressure 30.11 in    
Wind  
Wind Speed 10 mph (East)    
Max Wind Speed 21 mph    
Max Gust Speed 29 mph    
Visibility 10 miles    
Events      
Averages and records for this station are not official NWS values.
T = Trace of Precipitation, MM = Missing Value Source: NWS Daily Summary

Daily Weather History Graph

Daily Weather History Graph

Search for Another Location

Airport:

Trip Planner

Search our weather history database for the weather conditions in past years. The results will help you decide how hot, cold, wet, or windy it might be!

Date:

Astronomy

Oct. 06, 2012 Rise Set
Actual Time 7:30 AM MDT 7:00 PM MDT
Civil Twilight 7:02 AM MDT 7:28 PM MDT
Nautical Twilight 6:30 AM MDT 7:59 PM MDT
Astronomical Twilight 5:58 AM MDT 8:31 PM MDT
Moon 11:17 PM MDT (10/6) 1:30 PM MDT (10/6)
Length of Visible Light 12h 25m
Length of Day
11h 30m
Waning Gibbous, 65% of the Moon is Illuminated
Oct 6
Waning Gibbous
Oct 8
Last Quarter
Oct 15
New
Oct 21
First Quarter
Oct 29
Full

Hourly Weather History & Observations

Time (MDT) Temp. Windchill Dew Point Humidity Pressure Visibility Wind Dir Wind Speed Gust Speed Precip Events Conditions
12:55 AM 43.7 °F 37.7 °F 12.2 °F 28% 30.08 in 10.0 mi ESE 11.5 mph - N/A   Clear
1:55 AM 42.8 °F 37.0 °F 13.3 °F 30% 30.09 in 10.0 mi ESE 10.4 mph - N/A   Clear
2:55 AM 41.0 °F 35.2 °F 13.5 °F 33% 30.10 in 10.0 mi ESE 9.2 mph - N/A   Clear
3:55 AM 39.6 °F 31.3 °F 12.4 °F 33% 30.10 in 10.0 mi ESE 15.0 mph - N/A   Clear
4:55 AM 39.2 °F 31.6 °F 12.0 °F 33% 30.11 in 10.0 mi ESE 12.7 mph - N/A   Clear
5:55 AM 36.7 °F 27.6 °F 11.8 °F 36% 30.13 in 10.0 mi ESE 15.0 mph - N/A   Clear
6:55 AM 37.4 °F 26.9 °F 11.7 °F 35% 30.13 in 10.0 mi ESE 20.7 mph 28.8 mph N/A   Clear
7:55 AM 35.8 °F 25.7 °F 12.0 °F 38% 30.15 in 10.0 mi ESE 17.3 mph - N/A   Clear
8:55 AM 38.3 °F 29.3 °F 12.4 °F 35% 30.17 in 10.0 mi ESE 16.1 mph - N/A   Clear
9:55 AM 41.9 °F 34.6 °F 12.6 °F 30% 30.19 in 10.0 mi ESE 13.8 mph - N/A   Clear
10:55 AM 48.4 °F - 13.5 °F 25% 30.16 in 10.0 mi ESE 9.2 mph - N/A   Clear
11:55 AM 52.9 °F - 19.9 °F 28% 30.13 in 10.0 mi Variable 4.6 mph - N/A   Clear
12:55 PM 54.3 °F - 19.4 °F 26% 30.11 in 10.0 mi Calm Calm - N/A   Clear
1:55 PM 56.3 °F - 19.6 °F 24% 30.09 in 10.0 mi Variable 3.5 mph - N/A   Clear
2:55 PM 57.2 °F - 15.6 °F 20% 30.08 in 10.0 mi WNW 6.9 mph - N/A   Clear
3:55 PM 58.1 °F - 13.1 °F 17% 30.07 in 10.0 mi NNW 9.2 mph - N/A   Clear
4:55 PM 57.7 °F - 13.5 °F 18% 30.06 in 10.0 mi North 5.8 mph - N/A   Clear
5:55 PM 56.5 °F - 9.5 °F 15% 30.07 in 10.0 mi NNW 4.6 mph - N/A   Clear
6:55 PM 54.7 °F - 10.6 °F 17% 30.07 in 10.0 mi NNW 4.6 mph - N/A   Clear
7:55 PM 52.0 °F - 12.2 °F 20% 30.08 in 10.0 mi Calm Calm - N/A   Clear
8:55 PM 51.3 °F - 10.6 °F 20% 30.09 in 10.0 mi Calm Calm - N/A   Clear
9:55 PM 47.7 °F - 9.0 °F 21% 30.10 in 10.0 mi Calm Calm - N/A   Clear
10:55 PM 44.1 °F 39.0 °F 7.7 °F 23% 30.09 in 10.0 mi ESE 9.2 mph - N/A   Clear
11:55 PM 43.3 °F 36.8 °F 7.2 °F 23% 30.07 in 10.0 mi ESE 12.7 mph - N/A   Clear